Weather in Volochisk

Ukraine / Khmelnitsky District     49°32′17″N   26°12′02″E
temp.,
°C
wind,
m/s
gust,
m/s
humid.,
%
clouds,
%
prec.,
mm/h
press.,
hPa
HPBL,
m
9 december, thu
thu923:00−3n2395100 0.0 1014162
02:00−3ne2496100 0.0 1013159
05:00−3ene249694 0.0 1013159
08:00−2e249699 0.0 1014183
11:00−1e3595100 0.0 1014216
14:000ese3798100 0.0 1013301
17:000ese499548 0.0 1014247
20:00+1se51397100 0.0 1013345
10 december, fri
fri1023:00+1se61594100 0.0 1012484
02:00+1se71692100 0.0 1011482
05:00+2se71598100 0.0 1009672
08:00+3se514100100 0.1 1009453
11:00+4se514100100 0.1 1007413
14:00+5se613100100 1.1 1005396
17:00+7sse71695100 0.5 1003662
20:00+5s3897100 0.6 1005247
11 december, sat
sat1123:00+8se91693100 1.9 1004873
02:00+8sse81591100 5.4 1004817
05:00+3w2496100 4.1 1007161
08:00+3nnw2494100 4.2 1009191
11:00+3w4592100 0.1 1012286
14:00+3wnw359295 0.1 1013351
17:00+3ne2288100 0.0 1016323
20:00+3n2388100 0.0 1017138
12 december, sun
sun1223:00+3nne4790100 0.0 1018303
02:00+3ne5798100 2.8 1017242
05:00+3ne61197100 7.9 1015436
08:00+6ese31095100 14.1 1014471
11:00+7ese71486100 2.6 1014687
14:00+6ese61485100 3.6 1013616
17:00+6e71484100 1.6 1012658
20:00+5e71492100 6.3 1013661
13 december, mon
mon1323:00+5e61194100 3.9 1013454
02:00+4e4993100 4.4 1014412
05:00+4e3796100 1.9 1014332
08:00+4ene3696100 3.6 1015256
11:00+4ene3496100 1.3 1015217
14:00+3ne3495100 1.6 1015269
17:00+3ne3595100 0.4 1016248
20:00+3ne3495100 0.8 1017219